AF5LA Weather Reports


time (UTC)temp
F
wind
direction
speed
knots
gust
knots
rain 1hr
in
rain 24hr
in
rain mn
in
humidity
%
barometer
mb
20260510104509 67 128 0.0 0.0 0.00 0.01 0.00 90 1011.3
20260510103006 67 160 0.0 0.0 0.00 0.01 0.00 90 1011.3
20260510101506 67 160 0.0 0.0 0.00 0.01 0.00 89 1011.5
20260510100005 67 160 0.0 0.0 0.00 0.01 0.00 89 1011.6
20260510094505 67 160 0.0 0.0 0.00 0.01 0.00 89 1011.8
20260510093100 68 160 0.0 0.0 0.00 0.01 0.00 88 1011.5
20260510091557 68 160 0.0 0.0 0.00 0.01 0.00 87 1011.3
20260510090055 69 160 0.0 0.0 0.00 0.01 0.00 86 1011.3
20260510084601 69 160 0.0 0.0 0.00 0.01 0.00 86 1011.3
20260510083113 69 160 0.0 0.0 0.00 0.01 0.00 86 1011.3
20260510081611 69 160 0.0 0.9 0.00 0.01 0.00 86 1011.2
20260510080054 69 130 0.0 0.0 0.00 0.01 0.00 87 1011.2
20260510074547 70 130 0.0 0.0 0.00 0.01 0.00 86 1011.2
20260510073050 70 130 0.0 0.0 0.00 0.01 0.00 86 1011.1
20260510071544 70 130 0.0 0.0 0.00 0.01 0.00 86 1011.1
20260510070042 71 130 0.0 0.0 0.00 0.01 0.00 85 1011.1
20260510064539 72 130 0.0 0.0 0.00 0.01 0.00 85 1011.2
20260510063036 72 130 0.0 0.0 0.00 0.01 0.00 84 1011.1
20260510061535 73 130 0.0 0.9 0.00 0.01 0.00 83 1011.1
20260510060038 73 143 0.0 0.0 0.00 0.01 0.00 83 1011.1
20260510054528 74 142 0.0 0.0 0.00 0.01 0.00 82 1011.1
20260510053025 74 117 0.0 0.9 0.00 0.01 0.00 82 1011.1
20260510051523 74 169 0.0 0.9 0.00 0.01 0.00 82 1011.0
20260510050020 74 124 0.0 0.0 0.00 0.01 0.00 82 1010.8
20260510044520 74 124 0.0 0.9 0.00 0.01 0.01 82 1010.7
20260510043019 74 226 0.0 0.9 0.00 0.01 0.01 82 1010.7
20260510041520 73 223 0.0 0.9 0.00 0.01 0.01 84 1010.7
20260510040018 74 306 0.0 0.0 0.00 0.01 0.01 84 1010.5
20260510034517 73 306 0.0 0.0 0.00 0.01 0.01 87 1010.4
20260510033017 73 306 0.0 0.0 0.00 0.01 0.01 86 1010.2
20260510031517 73 306 0.0 0.0 0.00 0.01 0.01 86 1010.1
20260510030016 74 306 0.0 0.0 0.00 0.01 0.01 85 1009.9
20260510024522 74 306 0.0 0.0 0.00 0.01 0.01 83 1009.7
20260510023015 75 306 0.0 0.0 0.00 0.01 0.01 82 1009.7
20260510021516 75 306 0.0 0.0 0.00 0.01 0.01 81 1009.6
20260510020014 75 306 0.0 0.0 0.00 0.01 0.01 82 1009.4
20260510014514 76 306 0.0 0.0 0.00 0.01 0.01 83 1009.3
20260510013013 76 306 0.0 0.0 0.00 0.01 0.01 82 1009.0
20260510011514 77 306 0.0 0.0 0.00 0.01 0.01 80 1008.8
20260510010011 78 306 0.0 0.0 0.00 0.01 0.01 79 1008.7
20260510004511 78 20 0.0 0.9 0.00 0.01 0.01 77 1008.4
20260510003010 77 39 0.0 0.0 0.00 0.01 0.01 77 1008.3
20260510001510 76 39 0.0 0.0 0.00 0.01 0.01 77 1008.1
20260510000009 76 39 0.0 0.0 0.00 0.01 0.01 76 1007.9
20260509234509 78 39 0.0 0.9 0.00 0.01 0.01 81 1007.8
20260509233008 80 219 0.0 0.0 0.00 0.01 0.01 80 1007.5
20260509231509 83 219 0.0 4.3 0.00 0.01 0.01 66 1007.4
20260509230007 85 288 0.0 0.9 0.00 0.01 0.01 58 1008.3
20260509224506 91 167 0.0 0.0 0.00 0.01 0.01 49 1008.1
20260509223006 93 251 0.0 3.5 0.00 0.01 0.01 45 1007.8
20260509221506 94 124 0.0 0.9 0.00 0.01 0.01 45 1007.6
20260509220010 94 59 0.0 2.6 0.00 0.01 0.01 48 1007.8
20260509214501 94 92 0.0 2.6 0.00 0.01 0.01 48 1007.9
20260509213001 93 167 0.0 6.1 0.00 0.01 0.01 48 1007.9
20260509211559 92 127 0.0 4.3 0.00 0.01 0.01 47 1008.0
20260509210107 93 18 0.0 1.7 0.00 0.01 0.01 47 1008.2
20260509204603 94 18 0.0 2.6 0.00 0.01 0.01 46 1008.6
20260509203052 93 106 0.0 3.5 0.00 0.01 0.01 48 1008.8
20260509201551 93 68 0.0 5.2 0.00 0.01 0.01 47 1008.9
20260509200051 94 121 0.0 3.5 0.00 0.01 0.01 48 1009.1
20260509194546 92 106 0.0 2.6 0.00 0.01 0.01 51 1009.4
20260509193043 93 68 0.0 4.3 0.00 0.01 0.01 50 1009.8
20260509191542 92 82 0.0 3.5 0.00 0.01 0.01 53 1010.0
20260509190037 90 97 0.0 2.6 0.00 0.01 0.01 56 1010.1
20260509184540 89 45 0.0 4.3 0.00 0.01 0.01 59 1010.2
20260509183035 90 34 0.0 2.6 0.00 0.01 0.01 56 1010.4
20260509181540 90 94 0.0 3.5 0.00 0.01 0.01 56 1010.6
20260509180030 89 95 0.0 2.6 0.00 0.01 0.01 58 1010.7
20260509174535 89 91 0.0 2.6 0.00 0.01 0.01 59 1010.9
20260509173028 88 95 0.0 3.5 0.00 0.01 0.01 64 1011.0
20260509171524 87 82 0.0 3.5 0.00 0.01 0.01 65 1011.2
20260509170022 85 41 0.0 0.9 0.00 0.01 0.01 70 1011.2
20260509164519 85 89 0.0 1.7 0.00 0.01 0.01 71 1011.3
20260509163020 84 55 0.0 1.7 0.00 0.01 0.01 75 1011.4
20260509161512 81 73 0.0 4.3 0.00 0.01 0.01 79 1011.3
20260509160009 79 203 0.0 0.9 0.00 0.01 0.01 86 1011.2
20260509154503 77 115 0.0 1.7 0.01 0.01 0.01 89 1011.4
20260509153105 76 122 0.0 3.5 0.01 0.01 0.01 90 1011.9
20260509151559 75 356 0.0 0.0 0.01 0.01 0.01 92 1012.1
20260509150056 74 356 0.0 0.0 0.01 0.01 0.01 92 1012.1
20260509144552 73 356 0.0 0.0 0.00 0.00 0.00 92 1012.3
20260509143054 72 357 0.0 0.0 0.00 0.00 0.00 92 1012.3
20260509141559 72 356 0.0 0.0 0.00 0.00 0.00 92 1012.2
20260509140056 72 356 0.0 0.0 0.00 0.00 0.00 92 1011.8
20260509134543 72 357 0.0 2.6 0.00 0.00 0.00 92 1011.0
20260509133042 72 46 0.0 0.0 0.00 0.00 0.00 93 1011.0
20260509131541 72 46 0.0 0.0 0.00 0.00 0.00 92 1011.2
20260509130042 72 46 0.0 0.9 0.00 0.00 0.00 93 1011.3
20260509124538 72 321 0.0 0.0 0.00 0.00 0.00 93 1011.2
20260509123044 72 340 0.0 0.0 0.00 0.00 0.00 93 1011.5
20260509121532 72 337 0.0 0.0 0.00 0.00 0.00 93 1011.5
20260509120031 72 338 0.0 2.6 0.00 0.00 0.00 93 1011.6
20260509114530 72 323 0.0 2.6 0.00 0.00 0.00 92 1011.7
20260509113036 72 311 0.0 0.0 0.00 0.00 0.00 92 1011.3
20260509111631 72 219 0.0 0.0 0.00 0.00 0.00 92 1010.8
20260509110029 72 219 0.0 0.0 0.00 0.00 0.00 92 1010.8